Location: Fredericton
(45.9636°N, 66.6431°W)
Time: 08:26:45
(UTC-03:00)

Vanguard 1 Rocket - Visible Passes

Search period start: 28 May 2022 00:00
Search period end: 07 June 2022 00:00
Orbit: 652 x 4223 km, 34.3° (Epoch: 27 May)

Date Brightness Start Highest point End Pass type
(mag) Time Alt. Az. Time Alt. Az. Time Alt. Az.
30 May 9.8 04:14:43 10° SE 04:16:21 11° SE 04:18:10 10° ESE visible
01 Jun 9.4 04:15:12 10° SSE 04:18:19 14° SE 04:22:13 10° ESE visible
03 Jun 9.2 04:16:43 10° S 04:20:24 17° SE 04:25:18 10° ESE visible
05 Jun 9.0 04:18:54 11° SSW 04:22:36 20° SSE 04:28:03 10° ESE visible
